Theta_e
285 285 283 282 282 282 281 280 279 279 279 279 279 279 279 278 277 277 277 277 276 276 276 276 276 276 274 274 274 274 274 273 271 272 273 273 273 274 275 276 276 276 277
284 283 282 282 281 281 280 279 279 279 279 279 279 279 278 278 278 277 276 276 276 276 276 275 275 276 274 274 273 273 273 272 271 270 272 272 273 274 274 274 276 278 277
283 283 281 281 281 280 280 279 280 279 279 279 279 278 278 278 278 277 277 277 276 276 276 275 275 275 274 273 272 272 272 273 272 271 271 273 273 274 274 275 275 275 276
282 282 281 281 281 281 280 280 279 279 279 279 278 278 278 278 278 277 277 276 276 276 276 276 275 274 274 273 273 272 273 272 272 271 271 272 273 274 274 273 272 274 274
282 282 282 282 282 281 280 280 280 279 279 279 278 278 278 277 278 277 277 276 275 275 275 276 275 275 278 276 274 273 273 271 271 271 271 272 272 273 272 272 271 273 272
282 282 282 282 281 281 280 279 279 279 278 278 277 277 276 277 281 282 278 276 275 275 274 274 275 275 277 280 281 281 278 270 263 263 272 272 273 273 272 272 272 270 267
282 282 282 282 281 281 280 279 279 278 278 277 277 277 276 277 282 284 283 276 275 275 274 275 275 275 274 274 277 279 279 280 280 276 274 274 273 273 273 272 271 269 268
282 281 281 281 281 280 280 279 279 278 277 277 277 277 277 276 282 284 284 277 275 275 274 274 274 274 274 273 273 272 273 273 274 275 275 275 275 275 276 274 270 267 268
281 282 282 282 281 280 280 279 279 278 277 278 278 277 277 277 282 283 283 277 276 275 275 274 274 273 276 278 275 271 272 273 277 280 281 281 280 278 277 271 263 260 263
282 282 282 282 282 280 280 280 280 279 279 278 278 278 277 277 281 283 283 277 273 274 274 274 277 275 277 279 275 270 270 272 273 271 272 272 273 271 273 270 268 262 263
283 283 282 282 282 282 281 281 280 279 278 277 277 276 275 274 274 282 283 276 275 271 273 273 274 278 279 280 280 275 273 275 273 272 268 267 267 268 268 269 269 267 264
283 282 282 283 283 283 283 281 280 279 277 276 274 272 272 272 274 279 282 283 280 272 272 273 273 278 279 280 280 280 281 280 268 262 261 263 265 265 267 268 269 268 268
283 283 283 283 283 282 281 278 276 276 275 273 273 273 271 270 270 279 279 282 282 279 276 275 278 279 280 280 281 281 279 270 266 264 265 264 265 267 267 267 267 267 266
281 279 277 278 275 276 277 276 275 274 274 274 272 272 265 267 268 269 270 270 275 276 276 270 274 278 279 278 273 274 274 270 268 267 266 266 266 264 263 264 263 263 261
275 273 274 274 274 272 272 273 273 269 273 267 266 267 265 264 267 272 269 263 260 267 269 260 262 264 267 266 266 266 268 266 266 266 265 263 263 263 262 262 261 259 258
272 272 272 272 271 270 269 267 275 274 278 277 276 270 264 273 275 276 277 278 278 279 274 269 267 267 267 267 268 268 266 266 267 266 264 262 261 260 260 260 260 257 257
272 270 268 268 268 267 266 268 267 269 277 278 278 278 276 273 277 278 278 278 277 272 264 258 258 260 263 264 265 266 266 266 266 265 263 261 259 257 256 256 258 258 256
268 269 269 267 267 266 266 265 266 267 266 262 272 274 276 275 274 274 274 267 257 258 254 253 254 255 256 256 258 261 261 262 262 261 260 258 257 255 251 255 256 253 253
266 264 263 262 261 263 262 262 261 261 261 258 257 263 262 270 270 270 267 253 251 251 251 251 250 249 251 252 255 255 256 258 257 256 255 256 255 253 249 254 255 255 255
261 262 261 261 260 260 261 260 259 259 258 257 255 255 253 255 252 250 249 248 247 247 246 246 247 246 247 248 251 249 250 250 253 255 255 256 255 254 254 253 252 252 250
259 259 259 258 258 257 257 258 258 257 256 253 255 258 262 252 250 249 249 247 247 246 246 245 247 245 246 247 247 247 247 251 251 256 255 254 253 252 253 253 249 248 253
256 255 256 255 255 256 255 256 256 256 255 256 253 254 265 253 249 248 247 246 246 245 246 245 246 247 248 248 249 250 251 251 250 256 254 254 254 252 250 248 246 248 251
256 255 254 252 254 254 253 251 252 252 250 250 252 253 250 248 248 247 247 246 245 246 246 244 245 248 248 247 249 252 254 252 252 253 254 253 252 251 246 243 244 243 247
254 254 254 252 252 252 252 249 250 252 252 251 249 248 251 249 247 248 246 246 245 245 245 245 247 248 249 249 247 249 251 252 248 250 252 253 252 247 242 242 244 245 249
252 253 252 252 252 253 254 253 253 250 250 253 250 249 248 246 246 245 245 245 245 245 248 249 249 249 250 250 250 248 248 254 252 251 248 249 247 242 242 242 243 245 248
252 252 251 251 252 250 252 253 252 253 253 253 251 248 247 247 247 247 247 246 248 249 249 250 249 249 249 250 250 251 252 256 254 252 249 246 245 245 243 243 243 247 249
Wind_Speed
12 11 11 11 10 11 11 9 10 10 11 11 10 10 9 8 7 6 6 7 7 6 5 5 5 5 4 3 2 2 2 2 3 4 3 3 3 8 9 8 9 9 10
11 12 12 11 11 11 10 10 10 11 9 11 10 10 9 8 7 8 8 7 7 6 6 5 5 4 5 4 3 3 3 3 2 7 4 3 3 8 9 10 9 8 10
12 12 11 12 12 13 11 11 11 10 9 9 10 11 10 9 8 6 7 7 7 6 6 6 6 5 4 4 4 3 3 3 3 4 7 2 4 6 10 8 10 12 9
13 13 14 14 14 13 11 11 11 10 11 10 9 8 9 8 7 7 7 6 6 6 5 6 5 6 5 5 4 4 4 4 3 4 6 7 6 7 4 9 13 9 12
15 14 15 13 12 11 11 11 10 10 9 8 8 6 6 7 6 8 7 7 7 6 5 5 5 5 10 7 3 5 5 4 3 4 6 7 7 7 8 8 10 11 14
15 14 13 13 12 12 11 11 11 10 8 8 7 7 7 6 13 16 10 7 7 6 6 6 5 5 8 11 14 14 9 5 4 3 6 7 10 7 8 8 8 11 11
15 13 13 14 14 12 11 11 11 11 9 9 7 8 8 7 16 16 16 6 6 6 6 5 4 4 6 6 11 13 12 14 15 9 10 8 8 7 10 10 10 10 12
14 14 14 14 12 12 12 12 10 9 10 9 9 9 8 7 16 17 16 6 5 6 6 6 5 5 7 7 6 6 8 8 9 7 8 9 8 8 8 8 10 9 11
15 15 15 15 14 14 13 12 9 8 6 8 7 9 10 8 19 18 13 5 6 8 6 6 6 7 11 14 8 6 8 9 11 18 20 18 15 16 14 8 5 4 10
15 14 14 15 15 14 13 12 9 8 10 7 8 9 10 10 17 18 14 4 6 6 5 6 12 11 15 15 9 6 10 9 6 6 3 5 7 8 14 7 6 6 7
12 12 12 12 14 13 12 8 9 10 8 9 9 8 10 9 9 18 18 5 7 4 6 5 6 15 17 18 19 7 9 9 10 5 2 3 5 5 4 5 7 6 8
10 10 10 10 8 8 12 10 12 11 11 10 9 6 4 5 10 16 18 19 12 6 7 5 5 15 17 18 15 17 20 18 3 2 2 3 3 3 4 5 7 8 8
10 10 10 10 10 11 12 10 8 9 8 7 7 7 5 4 4 14 16 19 19 12 4 7 13 15 18 15 17 18 12 3 4 3 4 3 2 3 5 6 7 9 9
10 9 8 9 7 7 5 7 7 8 7 6 7 6 3 3 4 3 3 3 8 8 9 4 6 12 14 13 5 7 5 4 5 6 5 3 2 1 3 4 5 6 7
7 7 7 5 7 6 3 4 4 1 5 5 4 4 4 3 5 9 7 3 3 6 5 1 1 2 5 3 4 4 4 2 5 4 4 3 3 3 3 2 4 4 5
6 5 5 5 4 5 5 4 4 5 8 7 8 6 2 5 6 8 9 9 10 13 5 4 3 2 4 5 5 6 3 5 7 6 3 3 3 3 3 3 3 4 6
7 6 4 5 5 6 4 6 6 3 7 6 8 10 10 7 8 6 2 2 8 7 3 2 1 0 3 4 5 5 7 4 4 3 3 2 2 2 3 3 4 5 6
5 6 6 5 5 5 5 5 5 7 6 2 6 7 10 9 7 5 2 8 4 5 2 1 1 2 2 2 3 5 4 2 2 2 2 2 2 2 2 3 4 4 5
5 3 4 4 3 4 4 4 4 4 4 4 2 5 6 8 7 7 9 4 2 1 1 1 1 2 2 3 4 3 2 3 2 2 2 3 3 3 3 3 4 7 7
5 7 5 4 4 4 4 5 4 4 4 4 3 2 0 4 3 2 2 2 2 2 2 3 3 3 3 3 3 2 3 2 3 3 4 4 3 3 4 4 3 4 3
4 4 6 4 4 3 3 4 4 4 4 2 2 2 5 3 3 2 1 1 3 3 3 3 3 3 3 3 2 2 3 4 3 5 4 3 3 3 4 4 3 3 5
5 4 4 4 4 4 4 4 4 4 3 4 2 1 5 3 3 2 3 3 4 4 4 4 3 3 4 3 3 3 4 5 4 5 4 3 3 3 3 3 3 2 4
5 5 4 4 4 5 4 4 4 3 3 3 3 2 1 2 3 3 4 4 3 3 3 3 3 4 3 4 4 4 5 5 5 4 4 4 4 4 3 4 3 3 3
5 5 5 4 3 3 4 3 3 4 3 3 3 3 2 3 3 4 4 4 3 4 3 3 4 5 4 5 4 4 5 5 3 4 6 5 6 4 3 3 4 4 4
4 4 3 3 3 3 4 3 3 3 3 2 2 2 3 3 3 4 4 3 3 3 5 4 4 6 8 8 7 8 7 10 6 6 4 5 6 6 4 3 4 3 5
4 3 3 2 2 2 1 1 2 2 3 3 3 3 3 3 4 4 4 3 4 4 6 5 6 9 9 7 9 10 10 11 9 10 6 5 5 5 4 6 6 5 6
Wind_Direction
164 163 162 161 155 156 163 162 163 156 157 156 153 150 152 149 151 141 135 137 133 138 144 153 150 152 159 190 175 184 170 154 249 281 256 289 302 323 322 314 308 308 312
164 163 166 160 156 160 165 167 164 165 163 158 155 156 158 158 159 155 150 153 146 156 164 157 176 169 182 197 192 188 202 201 218 290 292 309 302 320 307 310 316 310 313
163 163 161 164 165 171 169 167 166 161 164 161 162 166 164 165 165 161 155 157 159 167 167 179 188 181 195 205 207 214 210 240 221 258 289 306 295 310 314 311 319 312 309
165 167 171 173 173 172 167 167 168 166 165 170 174 167 165 163 163 160 160 162 164 177 177 195 187 194 210 208 214 218 221 222 226 249 275 291 299 309 291 323 317 315 314
173 176 179 170 167 162 161 166 165 169 170 165 160 162 160 166 170 170 173 166 173 186 194 205 203 208 229 219 193 220 217 218 219 249 273 287 297 309 318 317 302 309 311
177 180 168 164 160 163 161 165 163 165 156 154 166 166 172 189 191 192 179 177 188 186 202 210 209 224 245 247 249 252 231 185 224 215 266 276 286 303 308 307 302 315 314
173 169 167 163 163 164 161 163 172 173 159 167 161 169 196 200 201 202 200 190 191 194 200 204 204 211 226 236 257 261 266 270 266 260 269 272 286 294 298 296 308 302 291
172 163 163 163 165 162 164 173 168 164 169 172 177 188 199 212 211 210 210 179 199 209 210 199 206 221 227 232 238 240 245 240 251 262 264 269 260 271 283 306 307 302 295
175 172 168 169 167 167 171 169 160 153 167 186 181 193 202 213 213 216 211 173 205 222 211 201 209 230 242 256 253 236 246 247 250 262 270 257 285 301 309 310 303 306 303
177 172 168 172 173 173 168 163 161 176 192 185 191 205 206 216 213 216 217 164 215 219 213 219 220 236 251 256 254 234 259 261 246 247 258 275 292 289 300 290 281 276 289
171 164 166 169 169 166 157 161 170 186 181 190 201 207 207 204 208 218 223 188 219 198 224 226 225 247 259 263 261 237 237 262 257 238 202 263 256 250 260 261 265 283 288
141 145 152 154 151 159 171 178 184 184 188 191 196 207 210 183 203 227 229 232 215 208 226 231 225 248 260 264 265 265 273 277 127 167 219 234 253 265 262 264 272 280 275
139 151 163 170 177 178 181 173 165 173 185 191 196 213 204 175 200 225 231 238 242 249 208 219 241 254 262 266 273 278 286 159 181 207 250 255 228 264 284 287 283 282 286
155 156 149 156 145 150 157 166 169 177 185 188 194 206 140 159 196 208 239 262 272 266 277 312 290 280 271 277 284 269 257 202 212 231 240 237 241 231 264 277 291 308 304
127 135 145 146 154 141 111 162 167 113 166 167 182 155 161 200 220 216 205 202 214 241 252 27 318 274 274 277 275 264 263 233 231 232 229 232 238 259 267 266 286 302 281
120 135 147 141 132 134 135 93 109 146 174 156 156 168 198 191 193 201 211 223 231 234 218 226 257 267 276 287 286 282 222 240 249 241 224 224 217 234 270 279 281 270 288
133 135 130 131 144 148 145 149 135 58 131 158 163 171 168 172 194 209 211 254 22 52 65 58 112 286 321 318 312 297 291 271 268 245 247 212 194 226 245 270 284 291 292
119 133 151 154 150 145 150 146 139 146 140 94 83 104 105 112 101 75 10 60 27 30 85 118 277 285 280 272 283 297 300 296 262 254 234 210 220 217 243 258 274 271 282
102 101 100 99 93 109 110 113 120 131 141 135 67 80 23 84 86 74 73 102 120 66 348 327 262 269 273 274 274 274 276 275 257 238 246 237 240 216 245 256 271 279 285
85 108 105 113 117 115 119 126 125 128 129 135 122 147 118 63 55 35 66 112 128 192 217 226 264 258 257 251 263 266 277 283 272 251 243 241 236 226 253 254 243 268 262
98 89 102 91 96 103 106 113 108 112 123 117 109 142 166 121 150 150 168 203 198 220 231 220 247 244 254 262 269 267 245 257 241 251 241 237 224 235 240 255 247 241 271
94 103 96 109 111 104 113 122 133 129 128 128 112 350 102 91 132 192 225 240 232 218 220 216 245 234 233 228 235 241 244 247 246 249 237 239 235 238 241 238 248 247 264
95 98 86 74 80 93 80 74 94 101 122 124 127 133 146 195 205 217 230 246 243 254 244 215 230 262 245 237 230 229 245 239 233 221 231 238 235 238 216 228 224 245 232
81 87 99 100 95 102 120 131 135 143 145 154 169 194 209 224 230 244 246 254 256 257 244 245 232 236 254 257 246 242 244 245 220 227 228 241 249 235 211 223 224 230 254
91 96 101 128 134 144 139 148 157 157 164 188 194 209 224 239 250 253 255 253 258 267 269 258 243 245 254 257 256 253 250 264 255 221 206 218 230 219 220 217 219 232 245
69 72 86 98 97 120 139 172 180 175 200 214 223 222 223 234 244 252 254 251 254 254 256 253 252 256 260 256 253 255 247 253 246 235 210 202 215 225 206 227 231 236 246